QPF
0.00 0.00 0.00 0.00 0.00 0.00 0.00 0.00 0.00 0.00 0.00 0.00 0.00 0.00 0.00 0.00 0.00 0.00 0.00 0.00 0.00 0.00 0.00 0.00 0.00 0.00 0.00 0.00 0.00 0.00 0.00 0.00 0.00 0.00 0.00 0.01 0.01 0.02 0.02 0.01 0.00 0.00 0.01
0.00 0.00 0.00 0.00 0.00 0.00 0.00 0.00 0.00 0.00 0.00 0.00 0.00 0.00 0.00 0.00 0.00 0.00 0.00 0.00 0.00 0.00 0.00 0.00 0.00 0.00 0.00 0.00 0.00 0.00 0.00 0.00 0.00 0.00 0.00 0.01 0.02 0.03 0.02 0.01 0.00 0.00 0.01
0.00 0.00 0.00 0.00 0.00 0.00 0.00 0.00 0.00 0.00 0.00 0.00 0.00 0.00 0.00 0.00 0.00 0.00 0.00 0.00 0.00 0.00 0.00 0.00 0.00 0.00 0.00 0.00 0.00 0.00 0.00 0.00 0.00 0.00 0.00 0.00 0.01 0.03 0.04 0.01 0.00 0.00 0.00
0.00 0.00 0.00 0.00 0.00 0.00 0.00 0.00 0.00 0.00 0.00 0.00 0.00 0.00 0.00 0.00 0.00 0.00 0.00 0.00 0.00 0.00 0.00 0.00 0.00 0.00 0.00 0.00 0.00 0.00 0.00 0.00 0.00 0.00 0.00 0.00 0.00 0.01 0.03 0.02 0.00 0.00 0.00
0.00 0.00 0.00 0.00 0.00 0.00 0.00 0.00 0.00 0.00 0.00 0.00 0.00 0.00 0.00 0.00 0.00 0.00 0.00 0.00 0.00 0.00 0.00 0.00 0.00 0.00 0.00 0.00 0.00 0.00 0.00 0.00 0.00 0.00 0.00 0.00 0.00 0.01 0.02 0.02 0.01 0.00 0.00
0.00 0.00 0.00 0.00 0.00 0.00 0.00 0.00 0.00 0.00 0.00 0.00 0.00 0.00 0.00 0.00 0.00 0.00 0.00 0.00 0.00 0.00 0.00 0.00 0.00 0.00 0.00 0.00 0.00 0.00 0.00 0.00 0.00 0.00 0.00 0.00 0.00 0.00 0.02 0.03 0.02 0.01 0.00
0.00 0.00 0.00 0.00 0.00 0.00 0.00 0.00 0.00 0.00 0.00 0.00 0.00 0.00 0.00 0.00 0.00 0.00 0.00 0.00 0.00 0.00 0.00 0.00 0.00 0.00 0.00 0.00 0.00 0.00 0.00 0.00 0.00 0.00 0.00 0.00 0.00 0.00 0.02 0.04 0.04 0.03 0.01
0.00 0.00 0.00 0.00 0.00 0.00 0.00 0.00 0.00 0.00 0.00 0.00 0.00 0.00 0.00 0.00 0.00 0.00 0.00 0.00 0.00 0.00 0.00 0.00 0.00 0.00 0.00 0.00 0.00 0.00 0.00 0.00 0.00 0.00 0.00 0.00 0.00 0.00 0.02 0.04 0.05 0.04 0.03
0.00 0.00 0.00 0.00 0.00 0.00 0.00 0.00 0.00 0.00 0.00 0.00 0.00 0.00 0.00 0.00 0.00 0.00 0.00 0.00 0.00 0.00 0.00 0.00 0.00 0.00 0.00 0.00 0.00 0.00 0.00 0.00 0.00 0.00 0.00 0.00 0.00 0.00 0.01 0.03 0.04 0.04 0.03
0.00 0.00 0.00 0.00 0.00 0.00 0.00 0.00 0.00 0.00 0.00 0.00 0.00 0.00 0.00 0.00 0.00 0.00 0.00 0.00 0.00 0.01 0.01 0.01 0.00 0.01 0.01 0.01 0.00 0.00 0.00 0.00 0.00 0.00 0.00 0.00 0.00 0.00 0.02 0.04 0.05 0.05 0.05
0.00 0.00 0.00 0.00 0.00 0.00 0.00 0.00 0.00 0.00 0.00 0.00 0.00 0.00 0.01 0.01 0.01 0.01 0.01 0.02 0.02 0.04 0.06 0.06 0.05 0.05 0.04 0.03 0.02 0.02 0.01 0.00 0.00 0.00 0.00 0.00 0.00 0.01 0.03 0.06 0.08 0.07 0.06
0.01 0.00 0.00 0.00 0.00 0.00 0.00 0.00 0.00 0.00 0.00 0.00 0.00 0.00 0.01 0.01 0.01 0.01 0.02 0.05 0.09 0.12 0.13 0.12 0.10 0.09 0.07 0.04 0.03 0.04 0.02 0.02 0.02 0.01 0.00 0.01 0.01 0.02 0.06 0.09 0.11 0.12 0.10
0.05 0.01 0.01 0.00 0.00 0.00 0.00 0.00 0.00 0.00 0.01 0.01 0.01 0.01 0.02 0.02 0.02 0.03 0.04 0.04 0.07 0.12 0.12 0.14 0.15 0.13 0.11 0.07 0.06 0.04 0.04 0.04 0.04 0.03 0.03 0.03 0.04 0.07 0.09 0.11 0.12 0.13 0.13
0.04 0.02 0.01 0.01 0.01 0.01 0.01 0.01 0.02 0.02 0.02 0.02 0.03 0.03 0.04 0.05 0.05 0.04 0.04 0.05 0.05 0.07 0.08 0.10 0.11 0.13 0.12 0.11 0.11 0.08 0.07 0.07 0.07 0.06 0.04 0.05 0.08 0.10 0.14 0.13 0.12 0.15 0.15
0.02 0.03 0.03 0.02 0.02 0.03 0.03 0.04 0.04 0.05 0.05 0.04 0.05 0.07 0.09 0.07 0.06 0.06 0.06 0.06 0.05 0.06 0.07 0.08 0.11 0.13 0.15 0.13 0.12 0.12 0.10 0.09 0.08 0.06 0.04 0.04 0.08 0.10 0.13 0.14 0.16 0.18 0.17
0.04 0.06 0.07 0.08 0.10 0.11 0.11 0.09 0.08 0.09 0.09 0.09 0.12 0.11 0.08 0.07 0.06 0.07 0.07 0.06 0.05 0.05 0.05 0.05 0.08 0.08 0.08 0.09 0.09 0.11 0.09 0.08 0.06 0.05 0.04 0.04 0.05 0.09 0.11 0.14 0.16 0.18 0.19
0.06 0.11 0.15 0.20 0.25 0.25 0.25 0.23 0.22 0.21 0.17 0.17 0.16 0.12 0.11 0.10 0.08 0.07 0.07 0.06 0.05 0.04 0.04 0.05 0.06 0.06 0.06 0.06 0.05 0.06 0.04 0.04 0.04 0.05 0.06 0.04 0.04 0.05 0.08 0.12 0.14 0.15 0.17
0.13 0.17 0.22 0.30 0.36 0.39 0.43 0.44 0.40 0.34 0.27 0.25 0.22 0.17 0.14 0.12 0.10 0.10 0.07 0.06 0.05 0.06 0.06 0.06 0.07 0.05 0.05 0.04 0.03 0.02 0.02 0.01 0.01 0.03 0.04 0.03 0.04 0.05 0.06 0.11 0.13 0.14 0.16
0.21 0.23 0.30 0.42 0.53 0.56 0.61 0.67 0.62 0.51 0.41 0.37 0.30 0.24 0.18 0.15 0.13 0.10 0.08 0.08 0.08 0.09 0.08 0.08 0.06 0.04 0.03 0.04 0.03 0.02 0.01 0.01 0.01 0.01 0.01 0.02 0.03 0.04 0.04 0.08 0.11 0.12 0.13
0.27 0.37 0.47 0.56 0.63 0.72 0.74 0.78 0.69 0.55 0.45 0.41 0.38 0.32 0.22 0.16 0.14 0.12 0.11 0.11 0.11 0.11 0.08 0.06 0.05 0.03 0.02 0.03 0.03 0.02 0.01 0.01 0.02 0.01 0.01 0.01 0.01 0.02 0.02 0.04 0.04 0.05 0.09
0.30 0.46 0.57 0.56 0.65 0.73 0.70 0.67 0.59 0.48 0.40 0.36 0.35 0.26 0.19 0.16 0.14 0.13 0.15 0.16 0.14 0.11 0.07 0.05 0.03 0.02 0.02 0.03 0.03 0.03 0.02 0.02 0.02 0.01 0.00 0.00 0.01 0.01 0.01 0.02 0.03 0.04 0.05
0.27 0.40 0.48 0.50 0.56 0.64 0.65 0.62 0.53 0.42 0.33 0.27 0.26 0.24 0.21 0.17 0.14 0.15 0.17 0.18 0.15 0.10 0.06 0.04 0.03 0.03 0.03 0.02 0.02 0.02 0.01 0.01 0.01 0.00 0.00 0.00 0.00 0.00 0.00 0.01 0.03 0.02 0.03
0.15 0.18 0.22 0.26 0.33 0.37 0.43 0.40 0.35 0.32 0.28 0.25 0.23 0.19 0.16 0.15 0.14 0.13 0.14 0.15 0.12 0.08 0.05 0.04 0.03 0.02 0.02 0.02 0.02 0.02 0.01 0.00 0.00 0.00 0.00 0.00 0.00 0.00 0.00 0.00 0.01 0.01 0.02
0.10 0.11 0.12 0.13 0.17 0.18 0.22 0.27 0.30 0.28 0.25 0.23 0.20 0.17 0.16 0.16 0.15 0.14 0.14 0.13 0.12 0.06 0.04 0.03 0.02 0.02 0.02 0.01 0.01 0.00 0.00 0.00 0.00 0.00 0.00 0.00 0.00 0.00 0.00 0.00 0.00 0.00 0.01
0.09 0.10 0.11 0.12 0.12 0.14 0.16 0.18 0.21 0.23 0.21 0.19 0.18 0.16 0.16 0.16 0.16 0.13 0.12 0.10 0.08 0.05 0.03 0.02 0.02 0.01 0.01 0.01 0.00 0.00 0.00 0.00 0.00 0.00 0.00 0.00 0.00 0.00 0.00 0.00 0.00 0.00 0.00
0.06 0.07 0.09 0.13 0.15 0.16 0.15 0.15 0.14 0.14 0.16 0.19 0.19 0.17 0.14 0.14 0.14 0.13 0.13 0.12 0.09 0.07 0.05 0.04 0.03 0.02 0.01 0.01 0.00 0.00 0.00 0.00 0.00 0.00 0.00 0.00 0.00 0.00 0.00 0.00 0.00 0.00 0.01
MSLP
1009.05 1008.76 1008.73 1008.96 1009.39 1009.92 1010.44 1010.87 1011.16 1011.30 1011.36 1011.39 1011.47 1011.65 1011.94 1012.32 1012.74 1013.15 1013.47 1013.70 1013.83 1013.88 1013.89 1013.90 1013.94 1014.03 1014.15 1014.29 1014.42 1014.54 1014.63 1014.70 1014.77 1014.86 1014.98 1015.13 1015.32 1015.51 1015.70 1015.88 1016.04 1016.18 1016.31
1008.57 1008.40 1008.49 1008.82 1009.34 1009.93 1010.50 1010.97 1011.29 1011.47 1011.56 1011.64 1011.77 1011.99 1012.31 1012.71 1013.12 1013.50 1013.80 1014.00 1014.10 1014.14 1014.15 1014.17 1014.23 1014.33 1014.45 1014.58 1014.70 1014.78 1014.84 1014.89 1014.94 1015.02 1015.14 1015.31 1015.50 1015.70 1015.89 1016.06 1016.21 1016.33 1016.45
1008.08 1008.05 1008.26 1008.70 1009.30 1009.95 1010.57 1011.08 1011.43 1011.65 1011.79 1011.92 1012.09 1012.34 1012.67 1013.06 1013.45 1013.78 1014.03 1014.19 1014.26 1014.28 1014.29 1014.33 1014.42 1014.54 1014.69 1014.82 1014.93 1015.00 1015.04 1015.07 1015.12 1015.20 1015.33 1015.50 1015.69 1015.89 1016.08 1016.23 1016.36 1016.46 1016.58
1007.70 1007.79 1008.12 1008.65 1009.33 1010.04 1010.69 1011.22 1011.60 1011.84 1012.01 1012.17 1012.36 1012.63 1012.95 1013.31 1013.66 1013.94 1014.14 1014.24 1014.28 1014.29 1014.32 1014.39 1014.52 1014.68 1014.85 1015.01 1015.13 1015.20 1015.24 1015.27 1015.32 1015.41 1015.54 1015.72 1015.91 1016.10 1016.27 1016.40 1016.50 1016.59 1016.69
1007.49 1007.70 1008.12 1008.73 1009.45 1010.19 1010.85 1011.37 1011.75 1012.00 1012.18 1012.34 1012.55 1012.81 1013.12 1013.44 1013.73 1013.96 1014.10 1014.17 1014.19 1014.21 1014.26 1014.38 1014.54 1014.75 1014.97 1015.15 1015.29 1015.38 1015.43 1015.47 1015.53 1015.62 1015.77 1015.94 1016.13 1016.31 1016.45 1016.56 1016.64 1016.72 1016.82
1007.49 1007.78 1008.27 1008.93 1009.66 1010.39 1011.02 1011.51 1011.86 1012.09 1012.26 1012.42 1012.62 1012.87 1013.16 1013.44 1013.69 1013.87 1013.97 1014.02 1014.04 1014.07 1014.16 1014.32 1014.54 1014.79 1015.04 1015.26 1015.42 1015.53 1015.59 1015.64 1015.71 1015.82 1015.96 1016.14 1016.32 1016.48 1016.61 1016.70 1016.76 1016.83 1016.93
1007.67 1008.02 1008.54 1009.20 1009.91 1010.59 1011.16 1011.60 1011.89 1012.09 1012.23 1012.38 1012.58 1012.82 1013.09 1013.35 1013.57 1013.72 1013.80 1013.84 1013.86 1013.92 1014.05 1014.25 1014.51 1014.81 1015.09 1015.33 1015.50 1015.62 1015.69 1015.75 1015.83 1015.94 1016.09 1016.26 1016.43 1016.58 1016.69 1016.77 1016.82 1016.89 1016.99
1007.96 1008.34 1008.86 1009.49 1010.15 1010.75 1011.24 1011.59 1011.83 1011.98 1012.11 1012.26 1012.45 1012.69 1012.96 1013.21 1013.42 1013.56 1013.63 1013.67 1013.71 1013.80 1013.95 1014.19 1014.48 1014.79 1015.09 1015.33 1015.51 1015.62 1015.69 1015.75 1015.83 1015.94 1016.09 1016.25 1016.42 1016.55 1016.66 1016.73 1016.78 1016.86 1016.97
1008.28 1008.66 1009.16 1009.74 1010.31 1010.81 1011.21 1011.49 1011.67 1011.79 1011.91 1012.07 1012.29 1012.55 1012.83 1013.08 1013.29 1013.42 1013.50 1013.54 1013.60 1013.70 1013.87 1014.11 1014.41 1014.72 1015.01 1015.25 1015.41 1015.51 1015.57 1015.62 1015.69 1015.79 1015.93 1016.09 1016.25 1016.38 1016.48 1016.56 1016.62 1016.71 1016.84
1008.53 1008.91 1009.38 1009.88 1010.37 1010.78 1011.09 1011.30 1011.44 1011.56 1011.69 1011.88 1012.13 1012.42 1012.71 1012.98 1013.19 1013.32 1013.39 1013.43 1013.49 1013.59 1013.76 1014.00 1014.28 1014.57 1014.84 1015.05 1015.19 1015.27 1015.31 1015.35 1015.40 1015.50 1015.62 1015.77 1015.93 1016.06 1016.17 1016.26 1016.34 1016.45 1016.60
1008.67 1009.05 1009.48 1009.92 1010.32 1010.65 1010.89 1011.06 1011.19 1011.32 1011.49 1011.71 1012.00 1012.31 1012.63 1012.90 1013.10 1013.23 1013.29 1013.31 1013.36 1013.44 1013.59 1013.80 1014.06 1014.32 1014.56 1014.74 1014.85 1014.91 1014.94 1014.96 1015.01 1015.09 1015.20 1015.34 1015.49 1015.63 1015.75 1015.85 1015.96 1016.09 1016.26
1008.71 1009.08 1009.47 1009.85 1010.18 1010.45 1010.65 1010.80 1010.94 1011.10 1011.31 1011.58 1011.90 1012.23 1012.55 1012.81 1012.99 1013.10 1013.13 1013.14 1013.16 1013.22 1013.34 1013.52 1013.74 1013.97 1014.17 1014.33 1014.43 1014.47 1014.49 1014.51 1014.54 1014.61 1014.71 1014.84 1014.98 1015.12 1015.25 1015.38 1015.51 1015.67 1015.86
1008.67 1009.02 1009.38 1009.70 1009.98 1010.21 1010.39 1010.55 1010.72 1010.92 1011.17 1011.47 1011.81 1012.14 1012.44 1012.67 1012.82 1012.89 1012.89 1012.88 1012.87 1012.91 1013.00 1013.15 1013.34 1013.54 1013.72 1013.86 1013.95 1013.99 1014.01 1014.03 1014.05 1014.11 1014.20 1014.31 1014.44 1014.58 1014.72 1014.87 1015.03 1015.22 1015.44
1008.59 1008.93 1009.24 1009.52 1009.76 1009.97 1010.15 1010.33 1010.53 1010.77 1011.05 1011.36 1011.68 1011.99 1012.25 1012.44 1012.54 1012.58 1012.56 1012.52 1012.50 1012.53 1012.61 1012.74 1012.90 1013.08 1013.25 1013.38 1013.47 1013.53 1013.55 1013.57 1013.59 1013.64 1013.70 1013.80 1013.91 1014.04 1014.19 1014.35 1014.55 1014.76 1015.01
1008.55 1008.84 1009.11 1009.34 1009.55 1009.74 1009.94 1010.14 1010.37 1010.63 1010.91 1011.21 1011.50 1011.75 1011.95 1012.09 1012.15 1012.16 1012.14 1012.11 1012.10 1012.13 1012.21 1012.34 1012.50 1012.67 1012.82 1012.95 1013.05 1013.11 1013.15 1013.17 1013.19 1013.21 1013.25 1013.32 1013.40 1013.52 1013.66 1013.84 1014.05 1014.29 1014.57
1008.58 1008.80 1009.00 1009.19 1009.37 1009.56 1009.76 1009.99 1010.23 1010.49 1010.75 1011.01 1011.23 1011.42 1011.55 1011.63 1011.67 1011.68 1011.67 1011.68 1011.71 1011.78 1011.89 1012.02 1012.18 1012.34 1012.50 1012.62 1012.72 1012.79 1012.83 1012.84 1012.85 1012.85 1012.86 1012.88 1012.93 1013.01 1013.14 1013.31 1013.53 1013.80 1014.10
1008.69 1008.82 1008.95 1009.08 1009.24 1009.42 1009.63 1009.86 1010.10 1010.34 1010.56 1010.74 1010.88 1010.99 1011.05 1011.10 1011.13 1011.16 1011.22 1011.29 1011.40 1011.53 1011.68 1011.84 1012.00 1012.16 1012.29 1012.41 1012.50 1012.56 1012.60 1012.61 1012.59 1012.57 1012.53 1012.51 1012.50 1012.54 1012.63 1012.79 1013.00 1013.28 1013.59
1008.90 1008.93 1008.98 1009.05 1009.17 1009.34 1009.54 1009.77 1009.99 1010.18 1010.33 1010.43 1010.49 1010.51 1010.52 1010.54 1010.59 1010.68 1010.82 1010.99 1011.19 1011.40 1011.61 1011.80 1011.96 1012.10 1012.22 1012.31 1012.38 1012.43 1012.46 1012.45 1012.42 1012.36 1012.28 1012.20 1012.14 1012.12 1012.16 1012.28 1012.47 1012.73 1013.04
1009.20 1009.13 1009.09 1009.11 1009.19 1009.34 1009.52 1009.72 1009.90 1010.03 1010.10 1010.11 1010.08 1010.03 1010.00 1010.02 1010.11 1010.28 1010.51 1010.80 1011.10 1011.39 1011.65 1011.86 1012.03 1012.15 1012.23 1012.30 1012.35 1012.38 1012.39 1012.38 1012.33 1012.25 1012.13 1012.00 1011.87 1011.79 1011.76 1011.82 1011.96 1012.18 1012.47
1009.57 1009.41 1009.30 1009.27 1009.31 1009.42 1009.58 1009.74 1009.86 1009.93 1009.91 1009.83 1009.72 1009.61 1009.55 1009.57 1009.71 1009.96 1010.30 1010.69 1011.09 1011.45 1011.76 1011.99 1012.14 1012.23 1012.29 1012.32 1012.35 1012.38 1012.39 1012.39 1012.34 1012.24 1012.10 1011.92 1011.74 1011.59 1011.48 1011.46 1011.53 1011.69 1011.92
1010.02 1009.79 1009.62 1009.53 1009.53 1009.60 1009.71 1009.82 1009.88 1009.88 1009.78 1009.62 1009.44 1009.28 1009.20 1009.24 1009.42 1009.74 1010.16 1010.64 1011.11 1011.52 1011.86 1012.09 1012.22 1012.29 1012.31 1012.33 1012.35 1012.39 1012.43 1012.45 1012.43 1012.34 1012.20 1012.00 1011.77 1011.54 1011.36 1011.25 1011.22 1011.29 1011.43
1010.53 1010.25 1010.03 1009.89 1009.84 1009.86 1009.92 1009.97 1009.98 1009.90 1009.74 1009.52 1009.28 1009.08 1008.99 1009.04 1009.25 1009.61 1010.08 1010.60 1011.10 1011.54 1011.87 1012.09 1012.20 1012.24 1012.25 1012.27 1012.31 1012.38 1012.47 1012.54 1012.57 1012.53 1012.41 1012.20 1011.94 1011.66 1011.40 1011.19 1011.05 1011.01 1011.05
1011.07 1010.77 1010.51 1010.32 1010.22 1010.18 1010.18 1010.18 1010.13 1010.00 1009.79 1009.52 1009.25 1009.03 1008.93 1008.97 1009.18 1009.55 1010.03 1010.54 1011.04 1011.46 1011.76 1011.95 1012.03 1012.06 1012.06 1012.10 1012.18 1012.31 1012.47 1012.62 1012.73 1012.75 1012.67 1012.49 1012.22 1011.90 1011.56 1011.26 1011.02 1010.86 1010.79
1011.62 1011.30 1011.00 1010.76 1010.60 1010.51 1010.45 1010.40 1010.30 1010.14 1009.91 1009.63 1009.35 1009.12 1009.01 1009.04 1009.23 1009.56 1009.99 1010.46 1010.90 1011.26 1011.51 1011.66 1011.71 1011.72 1011.74 1011.80 1011.93 1012.13 1012.38 1012.62 1012.82 1012.93 1012.92 1012.77 1012.52 1012.18 1011.79 1011.41 1011.07 1010.80 1010.61
1012.11 1011.78 1011.44 1011.15 1010.93 1010.78 1010.68 1010.59 1010.47 1010.31 1010.08 1009.82 1009.55 1009.33 1009.21 1009.21 1009.36 1009.63 1009.99 1010.37 1010.72 1010.99 1011.17 1011.25 1011.27 1011.26 1011.29 1011.39 1011.57 1011.84 1012.16 1012.50 1012.79 1012.98 1013.04 1012.96 1012.73 1012.40 1011.99 1011.55 1011.13 1010.76 1010.47
1012.50 1012.14 1011.76 1011.42 1011.15 1010.95 1010.81 1010.70 1010.59 1010.45 1010.26 1010.04 1009.81 1009.61 1009.49 1009.47 1009.56 1009.75 1010.01 1010.28 1010.51 1010.68 1010.77 1010.79 1010.76 1010.74 1010.77 1010.89 1011.12 1011.44 1011.82 1012.22 1012.58 1012.85 1012.98 1012.96 1012.78 1012.47 1012.06 1011.60 1011.14 1010.71 1010.34
Thickness
5827 5826 5821 5816 5812 5807 5803 5800 5797 5795 5793 5791 5788 5786 5784 5781 5778 5776 5774 5773 5771 5770 5769 5768 5766 5765 5764 5763 5762 5760 5758 5757 5755 5753 5751 5750 5749 5748 5746 5745 5744 5743 5742
5836 5828 5823 5817 5812 5807 5803 5799 5795 5793 5790 5788 5786 5784 5781 5779 5777 5775 5773 5771 5770 5768 5767 5766 5765 5763 5762 5761 5760 5758 5757 5755 5754 5752 5750 5749 5748 5747 5745 5744 5743 5742 5741
5835 5828 5822 5817 5811 5806 5802 5797 5794 5791 5788 5786 5783 5781 5779 5777 5775 5773 5771 5769 5768 5767 5765 5764 5763 5761 5760 5759 5758 5757 5755 5754 5753 5751 5750 5748 5747 5746 5745 5744 5742 5741 5740
5834 5827 5821 5816 5811 5806 5801 5796 5792 5789 5786 5783 5781 5779 5777 5775 5773 5771 5769 5768 5766 5765 5764 5762 5761 5760 5759 5757 5756 5755 5754 5753 5752 5750 5749 5748 5747 5746 5744 5743 5742 5740 5739
5830 5825 5820 5815 5809 5804 5800 5795 5791 5787 5784 5781 5779 5776 5775 5773 5771 5769 5767 5765 5764 5763 5762 5761 5759 5758 5757 5755 5754 5753 5752 5751 5750 5749 5748 5747 5746 5745 5744 5742 5741 5740 5739
5827 5822 5818 5813 5808 5803 5798 5793 5789 5786 5782 5779 5777 5775 5772 5771 5769 5767 5765 5764 5762 5761 5760 5759 5758 5756 5755 5754 5752 5751 5750 5749 5748 5747 5746 5745 5744 5744 5742 5741 5740 5739 5738
5824 5820 5816 5811 5806 5801 5796 5791 5788 5784 5781 5778 5775 5773 5770 5768 5767 5765 5763 5761 5760 5759 5757 5756 5755 5754 5753 5752 5751 5749 5748 5747 5747 5746 5745 5744 5744 5743 5742 5741 5739 5738 5737
5823 5818 5814 5809 5804 5799 5794 5790 5786 5783 5780 5776 5773 5771 5768 5766 5764 5762 5760 5759 5757 5756 5755 5754 5752 5752 5751 5750 5749 5748 5747 5746 5745 5745 5744 5744 5743 5743 5742 5740 5739 5738 5737
5820 5815 5811 5807 5802 5797 5793 5788 5784 5781 5777 5774 5771 5768 5766 5764 5762 5760 5758 5756 5755 5753 5752 5751 5750 5749 5748 5747 5747 5746 5745 5744 5744 5743 5743 5743 5743 5742 5742 5741 5740 5738 5737
5816 5812 5809 5804 5800 5795 5791 5786 5782 5779 5776 5772 5770 5767 5764 5761 5759 5757 5755 5754 5752 5751 5750 5748 5747 5747 5746 5745 5745 5745 5744 5743 5743 5742 5741 5741 5742 5742 5741 5741 5740 5739 5738
5811 5809 5805 5801 5797 5792 5788 5785 5781 5776 5773 5770 5767 5765 5762 5759 5757 5755 5753 5752 5750 5749 5748 5747 5746 5745 5744 5744 5743 5743 5742 5742 5741 5741 5740 5740 5740 5741 5741 5741 5741 5740 5738
5805 5804 5802 5798 5793 5789 5785 5781 5777 5774 5770 5767 5765 5762 5759 5757 5754 5752 5750 5749 5748 5748 5747 5746 5745 5744 5743 5742 5742 5741 5740 5740 5740 5739 5740 5740 5740 5740 5740 5740 5740 5740 5739
5803 5799 5797 5793 5789 5784 5780 5777 5773 5770 5767 5764 5761 5758 5755 5753 5751 5749 5748 5747 5746 5746 5745 5745 5744 5743 5742 5741 5740 5739 5738 5738 5738 5738 5739 5739 5739 5739 5739 5739 5739 5739 5738
5798 5794 5791 5787 5782 5777 5774 5770 5768 5766 5763 5760 5758 5755 5752 5750 5748 5747 5746 5745 5744 5743 5743 5743 5742 5742 5741 5740 5739 5738 5737 5736 5736 5736 5737 5737 5738 5738 5739 5739 5739 5739 5738
5792 5789 5785 5781 5776 5771 5765 5762 5762 5760 5757 5754 5752 5751 5749 5747 5746 5744 5743 5742 5742 5741 5740 5740 5740 5739 5739 5738 5737 5737 5736 5735 5735 5735 5736 5736 5736 5737 5737 5737 5738 5737 5737
5787 5784 5781 5776 5770 5766 5761 5756 5755 5754 5751 5748 5747 5745 5745 5744 5744 5741 5740 5739 5739 5738 5737 5737 5736 5735 5735 5735 5734 5734 5735 5734 5734 5734 5734 5734 5735 5735 5735 5736 5736 5736 5736
5780 5777 5773 5769 5764 5760 5756 5751 5748 5746 5746 5745 5742 5740 5739 5740 5739 5738 5736 5735 5735 5735 5734 5734 5733 5731 5730 5730 5730 5731 5732 5732 5732 5732 5732 5732 5733 5734 5734 5735 5735 5735 5735
5773 5769 5765 5764 5758 5755 5751 5747 5744 5740 5741 5741 5737 5735 5735 5736 5735 5734 5733 5732 5732 5730 5729 5728 5727 5726 5725 5724 5725 5727 5728 5729 5730 5730 5729 5730 5730 5732 5733 5733 5734 5734 5733
5766 5762 5759 5756 5752 5749 5746 5741 5738 5736 5733 5734 5733 5731 5731 5731 5730 5729 5729 5729 5728 5726 5724 5724 5722 5721 5720 5719 5720 5722 5724 5726 5727 5728 5728 5728 5729 5729 5730 5730 5731 5731 5732
5757 5753 5750 5748 5744 5742 5738 5733 5729 5728 5726 5726 5726 5724 5724 5725 5725 5725 5724 5723 5722 5720 5719 5718 5717 5716 5716 5715 5716 5718 5720 5722 5723 5724 5725 5726 5727 5727 5727 5728 5728 5729 5729
5746 5743 5740 5736 5734 5732 5727 5721 5717 5717 5719 5719 5719 5718 5719 5719 5720 5719 5718 5716 5716 5715 5713 5712 5711 5711 5710 5710 5709 5710 5713 5717 5719 5721 5722 5723 5724 5725 5725 5725 5725 5726 5726
5734 5731 5729 5725 5724 5722 5718 5715 5714 5715 5713 5712 5713 5713 5713 5714 5713 5713 5712 5710 5710 5708 5708 5707 5705 5704 5704 5705 5703 5701 5701 5706 5712 5716 5717 5718 5719 5721 5722 5723 5723 5723 5723
5723 5721 5719 5716 5714 5712 5711 5711 5709 5707 5706 5706 5705 5705 5706 5707 5706 5707 5706 5706 5705 5704 5703 5702 5701 5699 5698 5698 5699 5697 5694 5694 5699 5706 5709 5712 5713 5715 5717 5719 5720 5720 5721
5712 5711 5710 5709 5706 5704 5703 5702 5700 5696 5694 5695 5696 5697 5698 5698 5698 5699 5699 5699 5699 5699 5697 5697 5698 5695 5694 5692 5692 5693 5693 5693 5692 5694 5700 5705 5707 5710 5712 5715 5716 5718 5718
5703 5702 5701 5699 5698 5697 5696 5694 5690 5688 5687 5687 5688 5688 5689 5689 5689 5690 5691 5691 5692 5692 5692 5691 5692 5690 5690 5688 5687 5688 5687 5687 5688 5687 5689 5694 5699 5704 5707 5709 5712 5714 5716
5693 5692 5691 5689 5687 5686 5685 5684 5681 5678 5677 5677 5676 5676 5678 5678 5680 5681 5681 5682 5683 5684 5685 5685 5685 5684 5684 5684 5683 5683 5683 5682 5683 5684 5684 5686 5690 5696 5702 5705 5707 5709 5711